DateTimeUTC,F1_A11,F1_S11,BsB_S11,BsG_S11,BsR_S11,BbsB_S11,BbsG_S11,BbsR_S11,BaB_A11,BaG_A11,BaR_A11,Tu_S11,T_S11,Uu_S11,U_S11,P_S11,T1_A11
2021-09-19T18:00:00Z,00000200,21010000,,,,,,,0000.03,0000.15,-000.14,19.1,26.3,,00.0,0655.2,31.1
2021-09-19T18:01:00Z,00000200,21000000,,,,,,,0000.56,0000.18,0000.56,19.1,26.3,,00.0,0655.2,31.2
2021-09-19T18:02:00Z,00000200,21000000,,,,,,,0000.42,0000.87,0000.28,19.1,26.3,,00.0,0655.2,31.2
2021-09-19T18:03:00Z,00000200,61000000,,,,,,,0000.15,-000.23,0000.21,19.1,26.3,,00.0,0655.2,31.1
2021-09-19T18:04:00Z,00000200,41000000,0002.96,0002.04,0001.20,0000.06,0000.41,0000.33,0000.53,0000.72,-000.01,19.5,26.2,,00.0,0656.1,31.1
2021-09-19T18:05:00Z,00000200,01000000,0002.72,0001.89,0000.77,0000.50,0000.07,0000.14,0001.10,0000.11,0000.46,19.5,26.2,,00.0,0656.2,31.1
2021-09-19T18:06:00Z,00000200,01000000,0003.01,0002.02,0001.15,0000.33,0000.60,-000.14,0000.27,0000.76,0000.59,19.4,26.1,,00.0,0656.2,31.0
2021-09-19T18:07:00Z,00000200,01000000,0002.35,0001.87,0001.16,0000.04,0000.33,0000.36,0000.54,0000.46,0000.18,19.3,26.0,,00.0,0656.2,31.0
2021-09-19T18:08:00Z,00000200,01000000,0002.22,0001.68,0001.28,0000.54,0000.61,0000.30,0001.05,0001.17,0000.98,19.2,25.9,,00.0,0656.2,31.0
2021-09-19T18:09:00Z,00000200,01000000,0002.17,0002.10,0001.20,0000.38,0000.11,0000.48,0001.07,0000.53,0000.20,19.1,25.9,,00.0,0656.2,31.0
2021-09-19T18:10:00Z,00000200,01000000,0002.32,0002.28,0001.17,-000.16,0000.64,0000.16,-000.01,0000.05,0000.31,19.1,25.9,,00.0,0656.2,31.0
2021-09-19T18:11:00Z,00000200,01000000,0002.84,0002.04,0001.01,0000.31,0000.28,0000.19,0000.66,0000.74,0000.67,19.0,25.8,,00.0,0656.2,31.0
2021-09-19T18:12:00Z,00000200,01000000,0002.94,0002.33,0001.29,0001.06,0000.22,0000.79,0000.58,0000.44,0000.28,19.0,25.8,,00.0,0656.2,31.0
2021-09-19T18:13:00Z,00000200,01000000,0002.80,0001.96,0001.10,0000.73,0000.32,0000.14,0000.13,0000.46,0000.11,18.9,25.8,,00.0,0656.2,31.0
2021-09-19T18:14:00Z,00000200,01000000,0003.01,0002.17,0001.36,0000.78,0000.45,0000.45,0001.08,0000.51,0000.51,18.9,25.7,,00.0,0656.2,31.0
2021-09-19T18:15:00Z,00000200,01000000,0003.05,0002.10,0000.89,0000.62,0000.09,0000.13,0000.58,0001.04,0000.67,18.9,25.7,,00.0,0656.2,31.0
2021-09-19T18:16:00Z,00000200,01000000,0002.80,0002.03,0001.30,0000.50,0000.10,0000.15,0000.85,0000.95,0000.54,18.9,25.7,,00.0,0656.2,31.0
2021-09-19T18:17:00Z,00000200,01000000,0002.30,0001.82,0000.90,0000.44,0000.08,0000.24,0000.75,0000.58,0000.37,19.0,25.7,,00.0,0656.2,31.0
2021-09-19T18:18:00Z,00000200,01000000,0003.59,0001.83,0001.29,0000.30,0000.09,0000.44,0001.08,0000.97,0001.03,19.1,25.8,,00.0,0656.2,31.1
2021-09-19T18:19:00Z,00000200,01000000,0002.90,0001.92,0000.89,0000.39,0000.15,0000.24,0000.84,0000.82,0000.60,19.2,25.8,,00.0,0656.2,31.1
2021-09-19T18:20:00Z,00000200,01000000,0002.00,0001.91,0000.83,-000.06,0000.26,-000.20,0000.28,0000.43,0000.43,19.4,25.9,,00.0,0656.2,31.1
2021-09-19T18:21:00Z,00000200,01000000,0002.02,0002.42,0000.82,0000.40,0000.47,0000.18,0001.36,0000.93,0000.69,19.4,26.0,,00.0,0656.2,31.2
2021-09-19T18:22:00Z,00000200,01000000,0001.90,0002.12,0000.84,0000.35,0000.33,0000.13,0000.27,0000.16,0000.22,19.5,26.0,,00.0,0656.2,31.1
2021-09-19T18:23:00Z,00000200,01000000,0003.30,0001.98,0000.88,0000.08,0000.03,-000.02,0001.06,0001.42,0000.83,19.4,26.0,,00.0,0656.2,31.1
2021-09-19T18:24:00Z,00000200,01000000,0003.01,0001.95,0001.14,0000.45,0000.34,0000.26,0000.34,0000.08,0000.19,19.4,26.0,,00.0,0656.2,31.1
2021-09-19T18:25:00Z,00000200,01000000,0003.46,0001.82,0000.86,0000.53,0000.23,0000.37,0000.13,0000.18,-000.21,19.4,26.0,,00.0,0656.2,31.1
2021-09-19T18:26:00Z,00000200,01000000,0002.13,0001.91,0000.95,0000.84,0000.28,0000.34,0000.43,0000.22,0000.53,19.3,25.9,,00.0,0656.2,31.1
2021-09-19T18:27:00Z,00000200,01000000,0003.30,0002.07,0000.98,0000.57,0000.56,0000.42,0000.21,0000.42,0000.07,19.3,25.9,,00.0,0656.2,31.1
2021-09-19T18:28:00Z,00000200,01000000,0003.07,0001.57,0001.27,0000.66,0000.38,0000.56,0000.36,-000.03,0000.60,19.2,25.9,,00.0,0656.2,31.1
2021-09-19T18:29:00Z,00000200,01000000,0002.48,0001.58,0001.03,0000.01,0000.55,0000.09,0000.38,0000.33,0000.13,19.2,25.9,,00.0,0656.2,31.1
2021-09-19T18:30:00Z,00000200,01000000,0001.81,0001.90,0001.05,0000.48,0000.44,0000.32,0000.87,0000.87,0000.53,19.2,25.8,,00.0,0656.2,31.1
2021-09-19T18:31:00Z,00000200,01000000,0002.70,0001.77,0000.59,0000.39,0000.18,0000.38,0000.55,0000.51,0000.40,19.2,25.9,,00.0,0656.2,31.1
2021-09-19T18:32:00Z,00000200,01000000,0002.63,0001.87,0000.99,0000.34,0000.45,0000.43,0001.26,0001.09,0000.90,19.3,25.9,,00.0,0656.2,31.1
2021-09-19T18:33:00Z,00000200,01000000,0002.95,0002.29,0000.82,0000.17,0000.47,-000.07,0001.08,0001.38,0001.12,19.5,25.9,,00.0,0656.2,31.1
2021-09-19T18:34:00Z,00000200,01000000,0002.54,0002.31,0000.72,0000.34,0000.29,0000.35,0000.57,0000.33,0000.17,19.6,26.0,,00.0,0656.2,31.1
2021-09-19T18:35:00Z,00000200,01000000,0002.42,0002.08,0000.94,-000.36,0000.10,0000.17,0000.35,0000.03,0000.37,19.6,26.1,,00.0,0656.2,31.2
2021-09-19T18:36:00Z,00000200,01000000,0003.82,0001.98,0001.12,0000.36,0000.61,0000.20,0000.53,0000.21,0000.16,19.7,26.1,,00.0,0656.2,31.2
2021-09-19T18:37:00Z,00000200,01000000,0003.51,0002.18,0001.15,0000.27,0000.33,0000.16,0000.11,0000.66,0000.28,19.7,26.1,,00.0,0656.2,31.2
2021-09-19T18:38:00Z,00000200,01000000,0003.12,0001.97,0001.49,0000.49,0000.18,0000.20,0000.77,0000.54,0000.36,19.6,26.1,,00.0,0656.2,31.1
2021-09-19T18:39:00Z,00000200,01000000,0002.51,0002.64,0000.83,0000.82,0000.27,0000.08,0000.45,0000.44,0000.40,19.6,26.1,,00.0,0656.2,31.1
2021-09-19T18:40:00Z,00000200,01000000,0002.73,0001.95,0001.00,-000.24,0000.28,-000.08,0001.73,0001.58,0001.21,19.5,26.0,,00.0,0656.3,31.1
2021-09-19T18:41:00Z,00000200,01000000,0002.75,0001.81,0001.09,0000.50,0000.30,0000.62,0000.57,0000.34,0000.15,19.5,26.0,,00.0,0656.3,31.1
2021-09-19T18:42:00Z,00000200,01000000,0003.00,0002.15,0000.99,0000.94,0000.28,0000.44,0000.49,0000.86,0000.46,19.5,26.0,,00.0,0656.2,31.1
2021-09-19T18:43:00Z,00000200,01000000,0001.96,0001.86,0001.16,0000.23,0000.61,0000.35,0000.12,-000.12,0000.18,19.4,26.0,,00.0,0656.2,31.1
2021-09-19T18:44:00Z,00000200,01000000,0002.83,0001.90,0000.78,0000.83,0000.17,0000.15,0000.67,0000.91,0000.79,19.4,26.0,,00.0,0656.2,31.1
2021-09-19T18:45:00Z,00000200,01000000,0002.44,0001.86,0001.14,0000.72,0000.42,0000.16,0000.43,0000.13,0000.30,19.4,25.9,,00.0,0656.2,31.1
2021-09-19T18:46:00Z,00000200,01000000,0002.31,0002.21,0001.06,0000.45,0000.23,0000.48,0001.24,0001.26,0000.59,19.4,26.0,,00.0,0656.2,31.1
2021-09-19T18:47:00Z,00000200,01000000,0002.10,0001.88,0000.76,0000.58,0000.36,0000.09,0000.03,-000.07,0000.14,19.5,26.0,,00.0,0656.2,31.1
2021-09-19T18:48:00Z,00000200,01000000,0002.05,0001.77,0001.02,0000.27,0000.21,-000.19,0001.47,0001.20,0000.90,19.6,26.0,,00.0,0656.3,31.1
2021-09-19T18:49:00Z,00000200,01000000,0002.30,0001.93,0001.29,0000.71,0000.49,0000.42,0001.13,0001.37,0000.94,19.6,26.1,,00.0,0656.3,31.2
2021-09-19T18:50:00Z,00000200,01000000,0001.86,0002.00,0000.84,0000.29,0000.53,0000.28,0001.08,0000.42,0000.52,19.6,26.1,,00.0,0656.2,31.1
2021-09-19T18:51:00Z,00000200,01000000,0002.69,0001.51,0000.88,0000.82,0000.39,0000.05,0000.33,0000.63,0000.22,19.6,26.1,,00.0,0656.2,31.2
2021-09-19T18:52:00Z,00000200,01000000,0002.77,0002.04,0000.83,-000.02,0000.19,0000.08,0000.68,0000.50,0000.49,19.6,26.1,,00.0,0656.2,31.1
2021-09-19T18:53:00Z,00000200,01000000,0002.12,0001.98,0000.76,0000.23,0000.42,0000.22,0000.95,0001.03,0000.66,19.5,26.0,,00.0,0656.2,31.1
2021-09-19T18:54:00Z,00000200,01000000,0002.54,0001.95,0001.01,0000.21,0000.50,0000.03,0000.82,0000.35,0000.30,19.5,26.0,,00.0,0656.2,31.1
2021-09-19T18:55:00Z,00000200,01000000,0001.88,0001.88,0000.84,0000.27,0000.29,0000.10,0000.59,0000.67,0000.33,19.4,26.0,,00.0,0656.2,31.1
2021-09-19T18:56:00Z,00000200,01000000,0002.70,0002.02,0001.04,0000.62,0000.16,0000.22,0000.75,0000.90,0000.81,19.4,26.0,,00.0,0656.2,31.1
2021-09-19T18:57:00Z,00000200,41000000,,,,,,,-000.73,-000.95,-000.22,19.4,26.0,,00.0,0656.2,31.1
2021-09-19T18:58:00Z,00000200,61000000,,,,,,,0000.58,0000.43,-000.05,19.0,26.1,,00.0,0655.3,31.1
2021-09-19T18:59:00Z,00000200,21000000,,,,,,,0000.20,0000.24,0000.56,18.9,26.2,,00.0,0655.2,31.1
